DW7889 Weather Reports


time (UTC)temp
F
wind
direction
speed
knots
gust
knots
rain 1hr
in
rain 24hr
in
rain mn
in
humidity
%
barometer
mb
20260508075043 56 326 6.1 13.0 0.24 1.54 0.39 92 1007.5
20260508074547 56 333 6.1 14.8 0.24 1.54 0.39 92 1007.7
20260508074028 55 360 7.8 14.8 0.24 1.54 0.39 93 1007.7
20260508073534 55 297 7.0 11.3 0.24 1.54 0.39 93 1007.7
20260508073042 55 321 8.7 11.3 0.28 1.54 0.39 92 1007.4
20260508072542 55 297 4.3 12.2 0.28 1.54 0.39 91 1007.1
20260508072043 56 257 6.1 13.0 0.24 1.46 0.37 89 1007.1
20260508071527 58 319 7.0 20.9 0.20 1.38 0.35 87 1007.3
20260508071031 62 295 7.0 20.0 0.20 1.38 0.35 89 1007.4
20260508070536 63 339 4.3 12.2 0.24 1.38 0.35 91 1006.7
20260508070043 63 6 5.2 13.9 0.20 1.34 0.34 91 1006.8
20260508065529 63 359 6.1 13.9 0.16 1.30 0.33 91 1006.9
20260508065033 63 359 1.7 11.3 0.16 1.30 0.33 91 1006.8
20260508064534 63 337 4.3 11.3 0.16 1.30 0.33 90 1006.8
20260508064039 63 289 4.3 9.6 0.16 1.30 0.33 90 1006.8
20260508063602 63 335 3.5 11.3 0.20 1.30 0.33 90 1006.4
20260508063027 63 318 6.1 13.0 0.16 1.26 0.32 89 1006.9
20260508062550 63 9 4.3 17.4 0.20 1.26 0.32 89 1006.1
20260508062034 63 20 5.2 17.4 0.16 1.22 0.31 90 1006.9
20260508061538 63 356 7.8 15.6 0.16 1.18 0.30 90 1007.1
20260508061043 63 348 6.1 15.6 0.20 1.18 0.30 90 1007.0
20260508060527 63 359 8.7 23.5 0.24 1.14 0.29 90 1006.7
20260508060034 63 9 11.3 23.5 0.55 1.14 0.29 91 1006.8
20260508055541 63 5 7.0 16.5 0.79 1.14 0.29 92 1007.1
20260508055046 63 356 7.8 13.0 0.79 1.14 0.29 92 1007.0
20260508054531 63 295 6.1 16.5 0.79 1.14 0.29 93 1006.8
20260508054036 62 340 9.6 16.5 0.79 1.14 0.29 93 1006.9
20260508053540 62 342 7.8 16.5 0.75 1.10 0.28 92 1006.8
20260508053024 62 359 6.1 16.5 0.75 1.10 0.28 92 1006.6
20260508052532 62 9 8.7 16.5 0.71 1.06 0.27 92 1006.9
20260508052056 62 10 7.8 15.6 0.71 1.06 0.27 92 1006.9
20260508051539 62 1 8.7 15.6 0.67 1.02 0.26 92 1006.9
20260508051045 62 21 7.8 13.0 0.63 0.98 0.25 91 1006.9
20260508050528 63 333 7.0 10.4 0.55 0.91 0.23 91 1007.3
20260508050035 63 351 4.3 9.6 0.24 0.59 0.15 90 1008.0
20260508045602 63 11 4.3 10.4 0.00 0.35 0.09 90 1007.4
20260508045043 63 328 6.1 10.4 0.00 0.35 0.09 90 1006.8
20260508044608 63 1 4.3 7.8 0.04 0.35 0.09 90 1006.4
20260508044029 63 39 4.3 11.3 0.04 0.35 0.09 89 1006.6
20260508043533 63 1 5.2 11.3 0.12 0.35 0.09 89 1006.7
20260508043038 63 360 5.2 11.3 0.31 0.35 0.09 89 1006.7
20260508042544 63 359 4.3 8.7 0.35 0.35 0.09 89 1006.6
20260508042028 63 359 4.3 7.8 0.35 0.35 0.09 89 1006.6
20260508041551 63 359 5.2 12.2 0.35 0.35 0.09 89 1006.6
20260508041052 63 360 5.2 12.2 0.35 0.35 0.09 89 1006.5
20260508040536 63 6 4.3 9.6 0.35 0.35 0.09 89 1006.6
20260508040043 63 359 5.2 13.9 0.35 0.35 0.09 89 1006.5
20260508035528 63 357 5.2 13.9 0.35 0.35 0.09 89 1006.6
20260508035031 63 46 8.7 14.8 0.35 0.35 0.09 89 1006.9
20260508034533 63 309 6.1 14.8 0.31 0.31 0.08 89 1007.0
20260508034038 63 337 6.1 13.0 0.31 0.31 0.08 89 1007.5
20260508033543 63 330 7.8 17.4 0.20 0.20 0.05 87 1007.3
20260508033046 64 329 8.7 17.4 0.04 0.04 0.01 86 1007.7
20260508032528 65 318 9.6 26.1 0.00 0.00 0.00 83 1007.8
20260508032032 66 295 12.2 26.9 0.00 0.00 0.00 80 1007.4
20260508031555 67 309 16.5 26.9 0.00 0.00 0.00 77 1007.5
20260508031038 68 322 16.5 27.8 0.00 0.00 0.00 72 1007.0
20260508030527 70 295 11.3 27.8 0.00 0.00 0.00 69 1007.1
20260508030036 72 294 9.6 18.2 0.00 0.00 0.00 65 1007.5
20260508025542 74 274 7.8 13.0 0.00 0.00 0.00 65 1006.9
20260508025027 74 359 7.8 13.9 0.00 0.00 0.00 65 1006.5
20260508024530 74 340 8.7 13.9 0.00 0.00 0.00 65 1006.6
20260508024053 74 1 7.0 13.0 0.00 0.00 0.00 65 1006.7
20260508023539 74 3 7.0 13.0 0.00 0.00 0.00 64 1006.7
20260508023043 74 343 7.8 13.0 0.00 0.00 0.00 64 1006.9
20260508022527 74 1 6.1 13.0 0.00 0.00 0.00 64 1006.9
20260508022034 74 1 6.1 13.0 0.00 0.00 0.00 65 1007.1
20260508021539 74 18 6.1 19.1 0.00 0.00 0.00 65 1006.6
20260508021103 74 1 7.8 19.1 0.00 0.00 0.00 64 1006.1
20260508020526 74 18 9.6 22.6 0.00 0.00 0.00 65 1006.2
20260508020031 74 340 7.0 15.6 0.00 0.00 0.00 64 1006.3
20260508015539 74 355 7.0 14.8 0.00 0.00 0.00 64 1006.5
20260508015042 74 20 7.8 17.4 0.00 0.00 0.00 64 1006.5
20260508014543 74 1 9.6 18.2 0.00 0.00 0.00 64 1006.7
20260508014048 74 359 7.8 17.4 0.00 0.00 0.00 64 1006.7
20260508013531 74 345 7.0 19.1 0.00 0.00 0.00 64 1006.8
20260508013035 74 1 7.0 19.1 0.00 0.00 0.00 64 1006.8
20260508012541 74 1 6.1 15.6 0.00 0.00 0.00 64 1006.8
20260508012044 74 353 7.8 14.8 0.00 0.00 0.00 64 1006.9
20260508011529 74 359 7.0 13.9 0.00 0.00 0.00 63 1007.0
20260508011031 74 1 7.0 13.0 0.00 0.00 0.00 63 1007.0
20260508010535 74 17 8.7 13.0 0.00 0.00 0.00 63 1006.9
20260508010041 74 5 7.8 14.8 0.00 0.00 0.00 63 1006.9
20260508005527 74 1 7.8 17.4 0.00 0.00 0.00 63 1006.9
20260508005052 74 1 8.7 17.4 0.00 0.00 0.00 63 1006.9
20260508004532 74 347 7.0 14.8 0.00 0.00 0.00 63 1006.9
20260508004035 74 1 7.0 13.0 0.00 0.00 0.00 63 1006.8
20260508003539 74 330 7.8 15.6 0.00 0.00 0.00 63 1006.7
20260508003043 74 20 8.7 15.6 0.00 0.00 0.00 63 1006.9
20260508002547 74 6 7.0 15.6 0.00 0.00 0.00 63 1006.9
20260508002049 74 33 7.8 15.6 0.00 0.00 0.00 63 1006.9
20260508001552 74 2 7.0 12.2 0.00 0.00 0.00 63 1006.9
20260508001034 74 23 6.1 13.9 0.00 0.00 0.00 63 1006.9
20260508000557 74 346 6.1 13.9 0.00 0.00 0.00 63 1006.8
20260508000042 74 1 6.1 10.4 0.00 0.00 0.00 63 1006.8
20260507235604 74 11 5.2 10.4 0.00 0.00 0.00 63 1006.7
20260507235028 74 360 4.3 7.8 0.00 0.00 0.00 63 1006.8
20260507234532 75 4 4.3 7.8 0.00 0.00 0.00 63 1006.7
20260507234055 75 356 4.3 9.6 0.00 0.00 0.00 63 1006.7
20260507233538 75 359 4.3 8.7 0.00 0.00 0.00 63 1006.8
20260507233040 75 13 5.2 10.4 0.00 0.00 0.00 63 1006.8
20260507232528 75 1 3.5 10.4 0.00 0.00 0.00 62 1006.7
20260507232032 75 11 4.3 8.7 0.00 0.00 0.00 62 1006.7
20260507231538 75 342 4.3 9.6 0.00 0.00 0.00 62 1006.6
20260507231043 75 40 4.3 9.6 0.00 0.00 0.00 62 1006.6
20260507230527 75 349 3.5 10.4 0.00 0.00 0.00 62 1006.6
20260507230034 75 40 4.3 10.4 0.00 0.00 0.00 62 1006.7
20260507225535 75 359 5.2 7.8 0.00 0.00 0.00 62 1006.6
20260507225038 75 1 4.3 7.8 0.00 0.00 0.00 62 1006.7
20260507224541 75 4 4.3 7.8 0.00 0.00 0.00 62 1006.8
20260507224045 75 31 6.1 9.6 0.00 0.00 0.00 62 1006.9
20260507223606 75 360 4.3 10.4 0.00 0.00 0.00 61 1006.9
20260507223029 75 1 6.1 10.4 0.00 0.00 0.00 61 1006.8
20260507222539 75 349 6.1 9.6 0.00 0.00 0.00 61 1006.7
20260507222041 76 306 5.2 7.8 0.00 0.00 0.00 61 1006.7
20260507221544 76 13 5.2 7.8 0.00 0.00 0.00 60 1006.8
20260507221030 76 345 5.2 10.4 0.00 0.00 0.00 60 1006.9
20260507220531 76 11 7.0 10.4 0.00 0.00 0.00 60 1006.8
20260507220054 76 5 6.1 10.4 0.00 0.00 0.00 60 1006.8
20260507215533 76 360 4.3 7.8 0.00 0.00 0.00 60 1007.2
20260507215039 76 8 5.2 9.6 0.00 0.00 0.00 60 1007.1
20260507214542 76 6 5.2 9.6 0.00 0.00 0.00 60 1007.0
20260507214045 76 42 4.3 7.8 0.00 0.00 0.00 60 1007.1
20260507213546 77 359 3.5 7.8 0.00 0.00 0.00 60 1007.3
20260507213027 77 351 3.5 7.8 0.00 0.00 0.00 60 1007.2
20260507212530 77 1 3.5 10.4 0.00 0.00 0.00 60 1007.2
20260507212038 77 20 6.1 10.4 0.00 0.00 0.00 59 1007.3
20260507211602 77 304 3.5 10.4 0.00 0.00 0.00 59 1007.2
20260507211043 77 13 6.1 10.4 0.00 0.00 0.00 59 1007.3
20260507210526 77 359 7.0 10.4 0.00 0.00 0.00 58 1007.4
20260507210051 77 16 5.2 9.6 0.00 0.00 0.00 59 1007.3
20260507205552 78 1 5.2 14.8 0.00 0.00 0.00 58 1007.3
20260507205035 78 360 7.8 14.8 0.00 0.00 0.00 58 1007.2
20260507204559 78 24 4.3 10.4 0.00 0.00 0.00 59 1007.1
20260507203537 78 335 4.3 12.2 0.00 0.00 0.00 58 1007.3
20260507203039 78 360 6.1 12.2 0.00 0.00 0.00 58 1007.2
20260507202523 79 356 7.0 12.2 0.00 0.00 0.00 57 1007.3
20260507202029 79 57 7.0 18.2 0.00 0.00 0.00 57 1007.3
20260507201532 79 355 7.0 18.2 0.00 0.00 0.00 57 1007.3
20260507201037 79 327 7.8 16.5 0.00 0.00 0.00 57 1007.3
20260507200524 79 20 6.1 16.5 0.00 0.00 0.00 56 1007.3
20260507200028 79 1 7.0 13.9 0.00 0.00 0.00 56 1007.4
20260507195532 79 332 8.7 13.9 0.00 0.00 0.00 56 1007.3
20260507195037 79 3 7.0 16.5 0.00 0.00 0.00 56 1007.2
20260507194558 79 1 11.3 16.5 0.00 0.00 0.00 56 1007.1
20260507194040 79 27 8.7 15.6 0.00 0.00 0.00 56 1007.2
20260507193604 79 356 9.6 19.1 0.00 0.00 0.00 55 1007.3
20260507193044 80 334 10.4 16.5 0.00 0.00 0.00 55 1007.3
20260507192546 80 360 7.0 13.0 0.00 0.00 0.00 56 1007.3
20260507192026 79 2 7.8 13.9 0.00 0.00 0.00 56 1007.3
20260507191530 80 328 6.1 13.9 0.00 0.00 0.00 56 1007.3
20260507191034 79 359 8.7 16.5 0.00 0.00 0.00 56 1007.3
20260507190535 79 18 7.8 16.5 0.00 0.00 0.00 56 1007.4
20260507190035 79 1 7.8 13.0 0.00 0.00 0.00 56 1007.2
20260507185538 79 1 6.1 13.9 0.00 0.00 0.00 57 1007.3
20260507185042 79 1 7.8 13.9 0.00 0.00 0.00 56 1007.4
20260507184601 79 3 7.0 12.2 0.00 0.00 0.00 56 1007.5
20260507184027 79 338 7.0 16.5 0.00 0.00 0.00 56 1007.4
20260507183530 79 1 9.6 16.5 0.00 0.00 0.00 56 1007.5
20260507183033 80 6 9.6 16.5 0.00 0.00 0.00 55 1007.4
20260507182539 80 359 7.8 17.4 0.00 0.00 0.00 55 1007.2
20260507182043 80 1 7.8 17.4 0.00 0.00 0.00 54 1007.1
20260507181546 80 345 7.8 20.9 0.00 0.00 0.00 54 1007.1
20260507181109 80 16 10.4 22.6 0.00 0.00 0.00 54 1007.1
20260507180528 80 354 13.0 22.6 0.00 0.00 0.00 53 1007.1
20260507180033 80 323 12.2 26.9 0.00 0.00 0.00 52 1007.2
20260507175554 81 25 10.4 25.2 0.00 0.00 0.00 52 1007.5
20260507175036 81 308 13.9 22.6 0.00 0.00 0.00 51 1007.4
20260507174538 81 336 13.9 22.6 0.00 0.00 0.00 51 1007.4
20260507174040 82 326 14.8 22.6 0.00 0.00 0.00 50 1007.5
20260507173527 82 8 9.6 22.6 0.00 0.00 0.00 50 1007.6
20260507173031 82 359 12.2 23.5 0.00 0.00 0.00 50 1007.6
20260507172534 82 338 12.2 24.3 0.00 0.00 0.00 50 1007.6
20260507172035 82 360 14.8 24.3 0.00 0.00 0.00 50 1007.6
20260507171559 82 349 9.6 22.6 0.00 0.00 0.00 51 1007.7
20260507171040 82 352 11.3 20.9 0.00 0.00 0.00 50 1007.7
20260507170537 82 300 11.3 20.9 0.00 0.00 0.00 50 1007.6
20260507170044 82 57 10.4 20.9 0.00 0.00 0.00 50 1007.7
20260507165541 82 349 9.6 22.6 0.00 0.00 0.00 51 1007.6
20260507165100 82 10 12.2 23.5 0.00 0.00 0.00 50 1007.7
20260507164542 82 1 13.0 21.7 0.00 0.00 0.00 49 1007.6
20260507164043 82 32 12.2 23.5 0.00 0.00 0.00 50 1007.7
20260507163545 82 31 13.9 27.8 0.00 0.00 0.00 49 1007.9
20260507163029 82 7 15.6 27.8 0.00 0.00 0.00 49 1008.0
20260507162533 82 6 10.4 24.3 0.00 0.00 0.00 49 1008.0
20260507162056 82 1 9.6 20.9 0.00 0.00 0.00 50 1008.1
20260507161540 82 1 10.4 29.5 0.00 0.00 0.00 50 1007.9
20260507161046 81 359 11.3 29.5 0.00 0.00 0.00 51 1008.0
20260507160548 82 7 14.8 25.2 0.00 0.00 0.00 51 1008.2
20260507160049 81 15 11.3 27.8 0.00 0.00 0.00 52 1008.1
20260507155529 81 313 15.6 27.8 0.00 0.00 0.00 53 1008.2
20260507155031 81 360 13.0 26.1 0.00 0.00 0.00 54 1008.1
20260507154535 81 14 10.4 20.9 0.00 0.00 0.00 57 1008.2
20260507154036 80 354 12.2 24.3 0.00 0.00 0.00 56 1008.4
20260507153538 80 30 13.9 25.2 0.00 0.00 0.00 57 1008.7
20260507153039 80 23 11.3 23.5 0.00 0.00 0.00 59 1008.9
20260507152538 80 320 9.6 20.0 0.00 0.00 0.00 60 1008.9
20260507152040 79 309 13.0 23.5 0.00 0.00 0.00 61 1009.0
20260507151541 79 11 12.2 25.2 0.00 0.00 0.00 62 1009.2
20260507151040 79 360 13.0 25.2 0.00 0.00 0.00 62 1009.3
20260507150604 79 7 11.3 21.7 0.00 0.00 0.00 62 1009.5
20260507150048 78 330 13.0 21.7 0.00 0.00 0.00 63 1009.7
20260507145531 78 311 11.3 20.9 0.00 0.00 0.00 64 1009.9
20260507145037 78 16 9.6 21.7 0.00 0.00 0.00 66 1009.9
20260507144539 77 357 14.8 21.7 0.00 0.00 0.00 65 1010.0
20260507144039 77 3 11.3 27.8 0.00 0.00 0.00 66 1010.2
20260507143602 77 326 7.8 20.9 0.00 0.00 0.00 67 1010.4
20260507143043 77 34 10.4 20.9 0.00 0.00 0.00 67 1010.6
20260507142546 76 328 12.2 22.6 0.00 0.00 0.00 69 1010.6
20260507142049 76 352 11.3 22.6 0.00 0.00 0.00 69 1010.7
20260507141038 75 8 11.3 22.6 0.00 0.00 0.00 69 1011.1
20260507140539 75 321 10.4 21.7 0.00 0.00 0.00 71 1011.3
20260507140039 74 359 12.2 19.1 0.00 0.00 0.00 71 1011.3
20260507135542 74 6 10.4 26.1 0.00 0.00 0.00 73 1011.4
20260507135044 73 8 13.0 26.1 0.00 0.00 0.00 73 1011.4
20260507134544 73 344 10.4 22.6 0.00 0.00 0.00 74 1011.5
20260507134106 73 348 10.4 17.4 0.00 0.00 0.00 74 1011.6
20260507133604 73 17 11.3 21.7 0.00 0.00 0.00 74 1011.7
20260507133104 73 30 10.4 20.0 0.00 0.00 0.00 73 1011.8
20260507132604 73 13 12.2 20.0 0.00 0.00 0.00 73 1011.9
20260507132044 73 11 14.8 20.9 0.00 0.00 0.00 73 1012.0
20260507131530 73 11 11.3 20.9 0.00 0.00 0.00 73 1012.1
20260507131031 73 9 10.4 18.2 0.00 0.00 0.00 74 1012.4
20260507130533 72 331 10.4 0.0 0.00 0.00 0.00 74 1012.2
20260507130034 72 25 8.7 17.4 0.00 0.00 0.00 75 1012.4
20260507125534 72 359 11.3 17.4 0.00 0.00 0.00 75 1012.5
20260507125035 72 354 10.4 21.7 0.00 0.00 0.00 75 1012.5
20260507124538 72 14 11.3 21.7 0.00 0.00 0.00 75 1012.6
20260507124037 72 11 11.3 17.4 0.00 0.00 0.00 74 1012.7
20260507123540 72 22 9.6 19.1 0.00 0.00 0.00 74 1012.8
20260507123040 72 347 11.3 19.1 0.00 0.00 0.00 74 1012.9
20260507122541 72 354 7.8 17.4 0.00 0.00 0.00 74 1012.8
20260507122039 72 360 10.4 18.2 0.00 0.00 0.00 74 1012.8
20260507121543 72 348 8.7 18.2 0.00 0.00 0.00 75 1012.8
20260507121026 72 360 7.8 17.4 0.00 0.00 0.00 75 1012.8
20260507120530 72 15 11.3 18.2 0.00 0.00 0.00 76 1012.8
20260507120056 72 359 8.7 21.7 0.00 0.00 0.00 76 1012.6
20260507115525 72 1 13.0 21.7 0.00 0.00 0.00 76 1012.6
20260507115030 72 355 11.3 19.1 0.00 0.00 0.00 76 1012.5
20260507114531 72 326 11.3 20.0 0.00 0.00 0.00 76 1012.5
20260507114035 71 8 12.2 20.0 0.00 0.00 0.00 76 1012.6
20260507113539 71 348 10.4 20.0 0.00 0.00 0.00 77 1012.5
20260507113040 71 1 8.7 15.6 0.00 0.00 0.00 77 1012.6
20260507112526 71 1 9.6 20.9 0.00 0.00 0.00 77 1012.5
20260507112051 71 15 9.6 20.9 0.00 0.00 0.00 77 1012.5
20260507111554 71 16 10.4 19.1 0.00 0.00 0.00 77 1012.4
20260507111054 71 11 9.6 19.1 0.00 0.00 0.00 77 1012.3
20260507110537 71 12 8.7 17.4 0.00 0.00 0.00 77 1012.3
20260507110038 71 9 11.3 17.4 0.00 0.00 0.00 77 1012.3
20260507105609 71 8 10.4 17.4 0.00 0.00 0.00 77 1012.1
20260507105043 71 297 9.6 17.4 0.00 0.00 0.00 77 1012.0
20260507104605 71 349 10.4 17.4 0.00 0.00 0.00 77 1012.0
20260507104045 71 5 11.3 17.4 0.00 0.00 0.00 77 1012.0
20260507103535 71 360 8.7 18.2 0.00 0.00 0.00 78 1012.1
20260507103040 71 1 12.2 20.0 0.00 0.00 0.00 78 1012.0
20260507102542 71 22 10.4 20.0 0.00 0.00 0.00 79 1012.1
20260507102104 71 355 10.4 18.2 0.00 0.00 0.00 79 1012.0
20260507101526 71 1 9.6 19.1 0.00 0.00 0.00 80 1012.0
20260507101030 71 25 10.4 19.1 0.00 0.00 0.00 80 1011.9
20260507100551 70 352 9.6 18.2 0.00 0.00 0.00 80 1012.0
20260507100031 71 28 10.4 20.0 0.00 0.00 0.00 80 1012.1
20260507095533 71 347 10.4 20.0 0.00 0.00 0.00 80 1012.0
20260507095032 71 353 10.4 18.2 0.00 0.00 0.00 80 1012.2
20260507094534 71 1 9.6 17.4 0.00 0.00 0.00 80 1012.1
20260507094040 71 359 9.6 16.5 0.00 0.00 0.00 80 1012.0
20260507093540 71 21 11.3 18.2 0.00 0.00 0.00 80 1012.0
20260507093043 71 1 12.2 20.0 0.00 0.00 0.00 80 1012.0
20260507092533 71 360 10.4 17.4 0.00 0.00 0.00 80 1012.0
20260507092039 71 1 12.2 20.0 0.00 0.00 0.00 80 1012.0
20260507091542 71 1 8.7 20.0 0.00 0.00 0.00 80 1012.1
20260507091047 71 357 10.4 18.2 0.00 0.00 0.00 80 1012.2
20260507090528 71 27 9.6 18.2 0.00 0.00 0.00 80 1012.2
20260507090035 71 17 11.3 17.4 0.00 0.00 0.00 81 1012.3
20260507085537 70 8 8.7 16.5 0.00 0.00 0.00 81 1012.3
20260507085040 70 1 10.4 16.5 0.00 0.00 0.00 81 1012.3
20260507084542 70 1 7.8 16.5 0.00 0.00 0.00 82 1012.3
20260507084041 70 6 9.6 17.4 0.00 0.00 0.00 82 1012.3
20260507083604 70 359 8.7 17.4 0.00 0.00 0.00 82 1012.4
20260507083026 70 360 8.7 20.9 0.00 0.00 0.00 82 1012.5
20260507082530 70 330 10.4 18.2 0.00 0.00 0.00 82 1012.5
20260507082054 70 1 10.4 16.5 0.00 0.00 0.00 82 1012.5
20260507081539 70 358 8.7 15.6 0.00 0.00 0.00 83 1012.5
20260507081044 70 359 8.7 16.5 0.00 0.00 0.00 83 1012.7
20260507080528 70 20 9.6 16.5 0.00 0.00 0.00 83 1012.7
20260507080034 70 360 8.7 16.5 0.00 0.00 0.00 83 1012.7
20260507075536 70 12 9.6 16.5 0.00 0.00 0.00 83 1012.8